Torna al catalogo

STARLINK-35860

AttivoComunicazioniVLEO
NORAD 66881·PAYLOAD·🇺🇸 United States

Lanciato Dec 4, 2025 da Vandenberg Space Force Base

Loading…

Prossimi Passaggi (prossime 24 ore)

TLE

AggiornatoSource: CelesTrak SupGP

Epoca: Sep 15, 2026, 03:39 UTC

1 66881C 25283D   26258.15256944 -.00048822  00000+0 -14426-2 0  2580
2 66881  53.1571 222.4237 0001439  87.5281 352.8360 15.34411782    17

Traccia STARLINK-35860 in tempo reale con AllMySat

Download on the App Store